星链-3629 (STARLINK-3629 )

导读 | 星芒AI

STARLINK-3629 是 SpaceX Starlink 项目中的一颗低轨通信卫星,属于该计划的第三批发射任务。该卫星旨在为全球用户提供高速、低延迟的互联网服务,尤其关注网络覆盖不足的地区。它运行在约 550 公里的轨道高度,采用先进的推进系统和激光通信技术,以提升连接效率和系统稳定性。作为 Starlink 卫星群的一部分,STARLINK-3629 有助于构建一个全球性的宽带网络,支持民用、商业和科研应用。

基本信息
目录编号:
51774
目录名称:
STARLINK-3629
国际标识:
2022-017G
轨道中心:
EARTH
卫星名称:
星链-3629
卫星全名:
星链-3629 (STARLINK-3629 )
卫星状态:
在轨 (已飞行1348 天)
发射日期:
2022-02-25 UTC
国别 :
美国 (US)
星等 :
--
轨道信息
数据来源 国际轨道数据 AOE轨道数据
星历时间 2025-11-04T06:30:15+0800
19小时前
查看轨道信息
2025-11-04T18:00:00+0800
7小时前
查看轨道信息
半长轴 6917.872km 6917.855km
偏心率 0.000134 0.0001272
轨道倾角 53.216° 53.215°
近地点辐角 80.590° 89.664°
升交点赤经 183.645° 181.495°
平近点角 279.524° 353.702°
近地点 538.81km 538.84km
远地点 540.664km 540.6km
周期 95.437分钟 95.437分钟
每日圈数 15.08843 15.088485
详细信息
固有亮度:
5
最大亮度:
2.5
卫星平台:
Starlink v1.5
覆盖范围:
全球
运营商:
太空探索技术公司
运营商所在国:
美国
制造商(研发单位):
太空探索技术公司
制造商所在国:
美国
使用方式:
暂无
卫星简介
星链(Starlink)计划是由太空探索技术公司(SpaceX)提出的一个巨型低轨卫星互联网星座项目,计划在2019年至2024年间在太空搭建由约1.2万颗卫星组成的“星链”网络,其中1584颗将部署在地球上空550千米处的近地轨道,并从2020年开始工作。该卫星仍在工作。
2D轨道图
3D轨道图
轨道高度分析图
轨道倾角分析图
轨道综合分析图
查看轨道综合分析图